Regional Weather Roundup
Issued by NWS

Home | Current Version | Previous Version | Text Only | Print | Product List | Glossary Off
Versions: 1 2 3 4 5 6 7 8 9 10 11 12 13 14 15 16 17 18 19 20 21 22 23 24 25 26 27 28 29 30 31 32 33 34 35 36 37 38 39 40 41 42 43 44 45 46 47 48 49 50

000
ASUS43 KMKX 231000
RWRWI

WISCONSIN REGIONAL WEATHER ROUNDUP
NATIONAL WEATHER SERVICE MILWAUKEE/SULLIVAN WI
500 AM CDT MON OCT 23 2017

NOTE: "FAIR" INDICATES FEW OR NO CLOUDS BELOW 12,000 FEET WITH NO
SIGNIFICANT WEATHER AND/OR OBSTRUCTIONS TO VISIBILITY.

WIZ001-002-006>008-014>016-023>028-231100-
NORTHWEST WISCONSIN

CITY           SKY/WX    TMP DP  RH WIND       PRES   REMARKS
SUPERIOR ARPT  CLOUDY    55  34  45 S12       29.73F
ASHLAND        CLOUDY    52  38  58 S9        29.77F
HAYWARD        CLOUDY    50  38  63 S7        29.80F
SIREN          CLOUDY    55  33  44 S8        29.78F
CUMBERLAND     MOCLDY    46  36  66 S8        29.81F
RICE LAKE      PTCLDY    48  39  72 S7        29.84F
CHETEK         PTCLDY    47  41  80 SE6       29.84F
LADYSMITH      CLOUDY    47  41  81 SE8       29.86F
EAU CLAIRE     NOT AVBL
MENOMONIE      PTCLDY    47  42  82 E3        29.84F
NEW RICHMOND   CLOUDY    50  37  62 S10       29.80F
OSCEOLA        CLOUDY    53  36  53 S6        29.82F
$$

WIZ003>005-009-010-017-018-231100-
NORTH CENTRAL WISCONSIN

CITY           SKY/WX    TMP DP  RH WIND       PRES   REMARKS
MANITOWISH WTR CLOUDY    40  40 100 SE5       29.88F
ARBOR VITAE    PTCLDY    42  40  93 S3        29.89S
WOODRUFF       PTCLDY    42  40  93 S3        29.89S
RHINELANDER    CLOUDY    43  40  89 SW8       29.90F
EAGLE RIVER    NOT AVBL
LAND O LAKES   PTCLDY    38  38 100 CALM      29.91F
PHILLIPS       CLOUDY    42  41  95 SE5       29.87F
TOMAHAWK       CLOUDY    37  36  97 CALM      29.90F FOG
MEDFORD        CLOUDY    40  38  95 CALM      29.89F
MERRILL        PTCLDY    30  30 100 CALM      29.92F
$$

WIZ029-030-035-036-043>047-231100-
CENTRAL WISCONSIN

CITY           SKY/WX    TMP DP  RH WIND       PRES   REMARKS
WAUSAU         CLEAR     36  36 100 E3        29.90F
MOSINEE        SNOW      34  34 100 SE3       29.92F VSB 1/2
MARSHFIELD     NOT AVBL
STEVENS POINT  FOG       37  37 100 CALM      29.93F VSB 1/4
WAUPACA        FOG       41  40  97 CALM      29.95S VSB 1/4
WAUTOMA        FOG      N/A N/A N/A CALM      29.94F VSB 1/2
WISC RAPIDS    NOT AVBL
CAMP DOUGLAS   NOT AVBL
$$

WIZ011>013-019>022-031-037>040-048>050-231100-
NORTHEAST WISCONSIN

CITY           SKY/WX    TMP DP  RH WIND       PRES   REMARKS
ANTIGO         CLOUDY    36  36 100 CALM      29.92F FOG
SHAWANO        FOG       42  41  95 CALM      29.94F VSB 1/4
OCONTO         CLOUDY    43  43 100 CALM      29.94F VSB 1/4
STURGEON BAY   FOG       43  43 100 CALM      29.96S VSB 1/4
GREEN BAY      FOG       43  43 100 S3        29.95F VSB 1/2
MANITOWOC      NOT AVBL
APPLETON       FOG       41  41 100 CALM      29.93F VSB 1/4
CLINTONVILLE   NOT AVBL
OSHKOSH        FOG       40  40 100 S6        29.95S VSB 1
$$

WIZ032>034-041-042-053>061-231100-
SOUTHWEST WISCONSIN

CITY           SKY/WX    TMP DP  RH WIND       PRES   REMARKS
LA CROSSE      CLOUDY    48  44  86 S10       29.90F
SPARTA         CLEAR     31  31  99 CALM      29.92F
VIROQUA        CLOUDY    42  40  93 S7        29.92F
BOSCOBEL       FOG       41  40  96 CALM      29.96S VSB 1/4
PRAIRIE DU CHI CLOUDY    39  38  97 CALM      29.94F
PLATTEVILLE    CLOUDY    41  41 100 S3        29.96F
$$

WIZ056-057-062-063-064-067-068-231100-
SOUTH CENTRAL WISCONSIN

CITY           SKY/WX    TMP DP  RH WIND       PRES   REMARKS
REEDSBURG      CLOUDY    37  37 100 CALM      29.94F
BARABOO/DELLS  CLOUDY    41  40  97 CALM      29.95S
LONE ROCK      NOT AVBL
MINERAL POINT  CLOUDY    43  43 100 CALM      29.95F
MADISON        CLOUDY    42  42 100 CALM      29.94F FOG
MIDDLETON      CLOUDY    43  43 100 CALM      29.97R
WATERTOWN      FOG       44  44 100 CALM      29.95F VSB 3/4
MONROE         CLOUDY    46  43  87 NW5       29.94F
JANESVILLE     CLOUDY    46  46 100 CALM      29.94F
$$

WIZ051-052-058>065-066-070>072-231100-
SOUTHEAST WISCONSIN

CITY           SKY/WX    TMP DP  RH WIND       PRES   REMARKS
MILWAUKEE      LGT RAIN  51  50  96 N6        29.96S
WAUKESHA       CLOUDY    46  45  93 CALM      29.97S
MILWAUKEE/TIMM LGT RAIN  48  45  87 CALM      29.98R
RACINE         LGT RAIN  50  50 100 NW6       29.97S
BURLINGTON     LGT RAIN  48  48 100 N3        29.95F
KENOSHA        LGT RAIN  50  48  93 N5        29.96S
FOND DU LAC    MOCLDY    44  42  93 CALM      29.96S FOG
SHEBOYGAN      CLOUDY    46  46 100 CALM      29.96S
WEST BEND      CLOUDY    46  46 100 CALM      29.97R
JUNEAU         FOG       42  42  99 CALM      29.97S VSB 1/2
$$

LSZ147-162-231100-
LAKE SUPERIOR

STATION/POSITION TIME  TEMP    WIND        PRES    WAVE
                       AIR SEA DIR/SP/G            HT/PER
                 (UTC) (F)     (DEG/KT/KT) (MB)    (FT/S)
W MID LAKE BUOY  0850   54 51              1009.2F   3/ 5
DEVILS ISLAND    0900   54     160/ 14/ 19 1008.4F
PORT WING        0740          170/ 11/ 16 1009.1F
SAXON HARBOR     0940   54     180/  8/ 13 1008.1F
$$

LMZ867-665-643>646-231100-
LAKE MICHIGAN

STATION/POSITION TIME  TEMP    WIND        PRES    WAVE
                       AIR SEA DIR/SP/G            HT/PER
                 (UTC) (F)     (DEG/KT/KT) (MB)    (FT/S)
S GREEN BAY BUOY 0930   47 58  270/  4/  6 1014.0F
N MID LAKE BUOY  0850   53 55  230/  4/  6 1015.0F   1/ 6
NORTHPORT PIER   0940   44     200/  2/  3 1013.9F
KEWAUNEE LAKESHO 0930   45        CALM     1013.5F
SHEBOYGAN LAKESH 0900   50     310/  4/  5 1014.3F
PORT WASHINGTON  0930   50      CALM  /  4 1015.6S
MILWAUKEE LAKESH 0930   51     310/  4/  5   N/A
S MID LAKE BUOY  0850   54 60   10/ 16/ 17 1013.6F   2/ 4
KENOSHA   LAKESH 0900   50     340/  7/  8 1014.6
$$

TC  - TEMPERATURE IN CELSIUS
VSB - VISIBILITY IN STATUTE MILES
WCI - WIND CHILL INDEX
HX  - HEAT INDEX




USA.gov is the U.S. government's official web portal to all federal, state and local government web resources and services.